TG9SRP-22 Weather Reports


time (UTC)temp
C
wind
direction
speed
KPH
gust
KPH
rain 1hr
cm
rain 24hr
cm
rain mn
cm
humidity
%
barometer
mb
20260502190548 26 180 20.9 0.0 0.00 0.00 0.00 54 1011.0
20260502185548 26 180 14.5 0.0 0.00 0.00 0.00 54 1011.0
20260502184547 26 180 14.5 0.0 0.00 0.00 0.00 54 1011.0
20260502183546 25 180 14.5 0.0 0.00 0.00 0.00 54 1011.0
20260502182546 25 180 14.5 0.0 0.00 0.00 0.00 42 1012.0
20260502181545 26 180 14.5 0.0 0.00 0.00 0.00 42 1012.0
20260502180545 26 180 14.5 0.0 0.00 0.00 0.00 42 1012.0
20260502163537 23 164 6.4 6.4 0.00 0.00 0.00 50 1013.0
20260502162537 23 166 4.8 6.4 0.00 0.00 0.00 50 1014.0
20260502161536 23 166 4.8 6.4 0.00 0.00 0.00 50 1014.0
20260502160535 23 166 4.8 6.4 0.00 0.00 0.00 50 1014.0
20260502151532 21 180 14.5 0.0 0.00 0.00 0.00 56 1014.0
20260502150532 21 180 14.5 0.0 0.00 0.00 0.00 56 1014.0
20260502130524 15 0 0.0 0.0 0.00 0.00 0.00 94 1014.0
20260502123522 12 0 0.0 0.0 0.00 0.00 0.00 96 1014.0
20260502122521 13 0 0.0 0.0 0.00 0.00 0.00 96 1014.0
20260502121521 13 0 0.0 0.0 0.00 0.00 0.00 96 1014.0
20260502120520 14 0 0.0 0.0 0.00 0.00 0.00 97 1014.0
20260502115519 12 237 4.8 4.8 0.00 0.00 0.00 98 1015.0
20260502114519 12 237 4.8 4.8 0.00 0.00 0.00 97 1015.0
20260502113518 12 237 4.8 4.8 0.00 0.00 0.00 96 1015.0
20260502112518 12 200 8.0 0.0 0.00 0.00 0.00 93 1014.0
20260502111517 13 200 8.0 0.0 0.00 0.00 0.00 92 1014.0
20260502110516 13 200 8.0 0.0 0.00 0.00 0.00 92 1014.0
20260502105516 13 200 9.7 0.0 0.00 0.00 0.00 91 1014.0
20260502104515 13 200 9.7 0.0 0.00 0.00 0.00 91 1014.0
20260502103514 14 200 9.7 0.0 0.00 0.00 0.00 92 1014.0
20260502102514 12 180 8.0 0.0 0.00 0.00 0.00 93 1013.0
20260502101513 13 180 8.0 0.0 0.00 0.00 0.00 92 1013.0
20260502100513 13 180 9.7 0.0 0.00 0.00 0.00 91 1013.0
20260502091509 14 180 9.7 0.0 0.00 0.00 0.00 93 1013.0
20260502090509 12 225 4.8 6.4 0.00 0.00 0.00 97 1013.0
20260502071502 14 180 20.9 0.0 0.00 0.00 0.00 92 1014.0
20260502070501 15 180 20.9 0.0 0.00 0.00 0.00 92 1014.0
20260502065501 13 180 20.9 0.0 0.00 0.00 0.00 94 1014.0
20260502064500 14 180 20.9 0.0 0.00 0.00 0.00 93 1014.0
20260502063459 15 180 20.9 0.0 0.00 0.00 0.00 93 1014.0
20260502062459 13 180 20.9 0.0 0.00 0.00 0.00 96 1014.0
20260502061458 14 180 20.9 0.0 0.00 0.00 0.00 96 1014.0
20260502060457 15 180 20.9 0.0 0.00 0.00 0.00 94 1014.0
20260502055457 13 221 6.4 9.7 0.00 0.00 0.00 10 1014.0
20260502054456 13 221 6.4 9.7 0.00 0.00 0.00 10 1014.0
20260502053455 13 221 6.4 9.7 0.00 0.00 0.00 10 1014.0
20260502052455 14 216 6.4 9.7 0.00 0.00 0.00 10 1014.0
20260502051454 14 216 6.4 9.7 0.00 0.00 0.00 10 1014.0
20260502050453 14 216 6.4 9.7 0.00 0.00 0.00 10 1014.0
20260502045453 14 216 6.4 9.7 0.00 0.00 0.00 10 1014.0
20260502044452 14 216 6.4 9.7 0.00 0.00 0.00 10 1014.0
20260502043451 14 216 6.4 9.7 0.00 0.00 0.00 10 1014.0
20260502042451 14 217 6.4 11.3 0.00 0.00 0.00 10 1014.0
20260502041450 14 217 6.4 11.3 0.00 0.00 0.00 10 1014.0
20260502040449 14 217 6.4 11.3 0.00 0.00 0.00 10 1014.0
20260502035449 13 217 6.4 11.3 0.00 0.00 0.00 97 1014.0
20260502034448 13 217 6.4 11.3 0.00 0.00 0.00 97 1014.0
20260502033448 13 180 24.1 0.0 0.00 0.00 0.00 95 1014.0
20260502032447 15 180 24.1 0.0 0.00 0.00 0.00 94 1014.0
20260502031446 15 180 24.1 0.0 0.00 0.00 0.00 94 1014.0
20260502030446 16 180 24.1 0.0 0.00 0.00 0.00 93 1014.0
20260502025445 17 180 25.7 0.0 0.00 0.00 0.00 91 1014.0
20260502024444 13 213 8.0 12.9 0.00 0.00 0.00 10 1014.0
20260502023444 15 213 8.0 12.9 0.00 0.00 0.00 10 1014.0
20260502022443 15 213 8.0 14.5 0.00 0.00 0.00 10 1013.0
20260502021442 14 213 8.0 14.5 0.00 0.00 0.00 10 1013.0
20260502020442 14 213 8.0 12.9 0.00 0.00 0.00 10 1013.0
20260502015441 15 213 8.0 12.9 0.00 0.00 0.00 10 1013.0
20260502014440 16 213 8.0 14.5 0.00 0.00 0.00 10 1013.0
20260502013440 15 213 8.0 14.5 0.00 0.00 0.00 10 1013.0
20260502012439 15 209 8.0 12.9 0.00 0.00 0.00 10 1012.0
20260502011438 16 209 8.0 14.5 0.00 0.00 0.00 10 1012.0
20260502010438 15 209 8.0 14.5 0.00 0.00 0.00 10 1012.0
20260502005437 15 209 8.0 12.9 0.00 0.00 0.00 10 1012.0
20260502004436 16 209 8.0 12.9 0.00 0.00 0.00 10 1012.0
20260502003436 16 209 8.0 14.5 0.00 0.00 0.00 10 1012.0
20260502002435 17 203 9.7 12.9 0.00 0.00 0.00 10 1011.0
20260502001434 17 203 9.7 12.9 0.00 0.00 0.00 10 1011.0
20260502000434 17 203 9.7 12.9 0.00 0.00 0.00 10 1011.0
20260501235433 17 203 9.7 12.9 0.00 0.00 0.00 90 1011.0
20260501234433 17 220 32.2 0.0 0.00 0.00 0.00 81 1011.0
20260501233432 18 220 32.2 0.0 0.00 0.00 0.00 79 1011.0
20260501232431 20 220 32.2 0.0 0.00 0.00 0.00 76 1010.0
20260501231431 21 220 32.2 0.0 0.00 0.00 0.00 72 1010.0
20260501230430 21 220 32.2 0.0 0.00 0.00 0.00 72 1010.0
20260501225430 22 220 32.2 0.0 0.00 0.00 0.00 69 1010.0
20260501224429 20 220 32.2 0.0 0.00 0.00 0.00 71 1010.0
20260501223428 21 220 32.2 0.0 0.00 0.00 0.00 73 1010.0
20260501222428 21 220 32.2 0.0 0.00 0.00 0.00 75 1009.0
20260501221427 22 220 32.2 0.0 0.00 0.00 0.00 80 1009.0
20260501220426 21 202 12.9 11.3 0.00 0.00 0.00 86 1009.0
20260501215426 21 200 29.0 0.0 0.00 0.00 0.00 75 1009.0
20260501214425 21 200 29.0 0.0 0.00 0.00 0.00 75 1009.0
20260501213425 22 200 29.0 0.0 0.00 0.00 0.00 71 1009.0
20260501212424 23 200 29.0 0.0 0.00 0.00 0.00 67 1009.0
20260501211423 24 200 29.0 0.0 0.00 0.00 0.00 64 1009.0
20260501210423 21 196 16.1 11.3 0.00 0.00 0.00 10 1009.0
20260501205422 21 196 16.1 11.3 0.00 0.00 0.00 10 1009.0
20260501204421 21 196 16.1 11.3 0.00 0.00 0.00 10 1009.0
20260501203421 21 196 16.1 11.3 0.00 0.00 0.00 10 1009.0
20260501202420 21 196 16.1 11.3 0.00 0.00 0.00 10 1010.0
20260501201419 22 196 16.1 11.3 0.00 0.00 0.00 79 1010.0
20260501200419 22 210 17.7 0.0 0.00 0.00 0.00 61 1010.0
20260501195418 23 210 17.7 0.0 0.00 0.00 0.00 57 1010.0
20260501194418 22 210 17.7 0.0 0.00 0.00 0.00 57 1010.0
20260501193417 22 210 17.7 0.0 0.00 0.00 0.00 57 1010.0
20260501192416 23 210 17.7 0.0 0.00 0.00 0.00 58 1011.0
20260501191416 23 210 17.7 0.0 0.00 0.00 0.00 57 1011.0